Tracking 29932 objects as of 3-Dec-2024
HD Live streaming from Space Station
objects crossing your sky now

STARLINK-11088

Track STARLINK-11088 now!
10-day predictions
STARLINK-11088 is classified as:


NORAD ID: 59709
Int'l Code: 2024-088B
Perigee: 366.3 km
Apogee: 367.5 km
Inclination: 53.2 °
Period: 91.7 minutes
Semi major axis: 6737 km
RCS: Unknown
Launch date: May 10, 2024
Source: United States (US)
Launch site: AIR FORCE WESTERN TEST RANGE (AFWTR)
Your satellite tracking list
Your tracking list is empty




NASA's NSSDC Master Catalog

Two Line Element Set (TLE):
1 59709U 24088B   24337.04013729  .00002383  00000-0  24513-4 0  9992
2 59709  53.1578  87.2788 0000881 151.4416 208.6650 15.69711978 33603
Source of the keplerian elements: AFSPC